Temperature
13 12 11 11 11 12 12 12 12 12 11 10 9 9 9 8 8 7 7 6 5 4 4 3 3 2 3 3 3 3 3 3 3 3 3 3 3 3 3 3 3 3 3 3
12 11 11 11 11 11 12 12 12 11 10 10 9 9 9 8 8 7 7 6 5 4 4 3 2 2 2 2 2 2 2 2 3 3 3 2 2 2 2 2 2 2 2 2
12 10 10 11 11 11 11 11 11 10 9 9 8 8 8 8 8 7 7 6 5 4 4 3 2 1 1 2 2 2 2 2 2 2 2 2 2 2 2 2 2 2 2 2
10 10 10 10 10 10 10 10 9 9 8 8 8 7 8 8 7 6 6 6 5 4 3 2 2 1 1 1 1 1 1 1 1 1 1 1 1 1 1 1 1 1 1 1
10 9 9 9 9 9 9 9 9 8 8 7 8 7 7 8 6 6 5 5 4 4 3 2 1 1 1 1 1 1 0 0 0 0 0 0 0 0 0 0 0 0 -0 -0
8 8 8 8 8 8 8 8 8 8 7 6 8 7 7 6 7 6 5 5 4 3 3 2 1 1 0 0 0 0 -0 -0 -0 -0 -0 -0 -1 -1 -1 -1 -1 -1 -1 -1
8 8 7 7 7 7 7 7 7 7 6 7 8 7 6 7 6 6 5 4 4 3 2 1 1 0 0 -0 -0 -0 -1 -1 -1 -1 -1 -1 -1 -1 -1 -1 -2 -2 -1 -1
9 8 7 7 7 6 7 7 7 7 7 8 7 6 6 5 5 5 5 4 3 2 1 1 0 0 -0 -1 -1 -1 -1 -1 -1 -1 -2 -2 -2 -2 -2 -2 -2 -2 -2 -2
8 8 6 6 7 6 7 6 7 6 6 6 6 6 5 4 4 4 3 3 2 1 1 0 0 -0 -1 -1 -1 -1 -2 -2 -2 -2 -2 -2 -2 -3 -3 -3 -3 -3 -3 -3
8 7 6 5 5 5 6 6 5 5 5 6 7 7 6 3 3 3 2 2 2 1 0 -0 -0 -1 -1 -1 -2 -2 -2 -2 -2 -3 -3 -3 -3 -3 -3 -3 -4 -4 -3 -4
7 6 5 4 4 5 5 5 5 5 6 5 6 6 5 4 3 3 2 2 1 1 -0 -0 -1 -1 -2 -2 -2 -2 -3 -3 -3 -3 -3 -3 -3 -4 -4 -4 -4 -4 -4 -4
6 5 4 5 4 4 5 5 5 4 4 5 4 4 4 3 3 2 2 1 1 0 -1 -1 -1 -2 -2 -2 -3 -3 -3 -3 -3 -4 -4 -4 -4 -4 -4 -5 -5 -5 -5 -5
5 4 4 4 4 3 3 4 4 4 3 3 4 4 2 2 2 2 1 1 0 -0 -1 -1 -2 -2 -3 -3 -4 -4 -4 -4 -4 -4 -4 -4 -5 -5 -5 -5 -5 -5 -5 -5
5 3 4 5 5 3 2 3 3 3 2 3 3 3 2 1 1 0 0 -0 -0 -1 -1 -2 -3 -3 -3 -4 -4 -5 -5 -5 -5 -5 -5 -5 -5 -5 -5 -6 -6 -6 -6 -6
3 2 3 3 4 3 3 3 2 2 2 2 3 3 2 1 0 0 -0 -1 -1 -2 -2 -3 -3 -4 -4 -4 -5 -5 -5 -5 -5 -5 -5 -5 -6 -6 -6 -6 -6 -6 -7 -7
2 2 2 2 2 2 2 2 2 2 2 2 2 2 1 1 1 -0 -1 -1 -2 -2 -3 -3 -4 -4 -5 -5 -5 -5 -5 -6 -6 -6 -6 -6 -6 -6 -6 -7 -7 -7 -7 -7
1 1 1 2 2 2 1 1 2 1 1 1 1 1 -0 -1 -1 -1 -2 -2 -2 -3 -4 -4 -4 -5 -5 -5 -5 -6 -6 -6 -6 -6 -6 -7 -7 -7 -7 -7 -7 -7 -8 -8
1 1 1 1 1 1 2 1 1 1 0 -0 -0 -1 -1 -2 -2 -2 -2 -3 -3 -4 -4 -5 -5 -5 -5 -6 -6 -6 -6 -7 -7 -7 -7 -7 -7 -7 -8 -8 -8 -8 -8 -8
0 0 1 1 1 2 2 0 -0 -0 -1 -2 -2 -2 -2 -2 -3 -3 -3 -3 -4 -5 -5 -5 -5 -6 -6 -6 -7 -7 -7 -7 -7 -7 -7 -8 -8 -8 -8 -8 -8 -8 -8 -8
-1 -1 -0 0 1 1 1 -1 -1 -1 -1 -2 -2 -3 -3 -3 -4 -4 -4 -5 -5 -5 -6 -6 -6 -6 -6 -7 -7 -7 -7 -8 -8 -8 -8 -8 -8 -8 -9 -9 -9 -9 -9 -9
-2 -1 -1 -1 -0 0 -2 -2 -1 -1 -1 -3 -3 -4 -4 -5 -5 -5 -5 -5 -6 -6 -6 -6 -7 -7 -7 -7 -8 -8 -8 -8 -8 -8 -8 -9 -9 -9 -9 -9 -9 -9 -9 -9
-2 -2 -2 -1 -1 -0 -4 -3 -3 -3 -4 -3 -4 -4 -5 -5 -6 -6 -6 -6 -6 -7 -7 -7 -7 -7 -7 -8 -8 -8 -8 -8 -9 -9 -9 -9 -9 -9 -9 -9 -9 -9 -9 -10
-2 -2 -2 -2 -2 -3 -4 -4 -4 -4 -4 -5 -5 -5 -5 -6 -7 -7 -7 -7 -7 -7 -7 -8 -8 -8 -8 -8 -8 -9 -9 -9 -9 -9 -9 -9 -9 -9 -9 -10 -10 -10 -10 -10
-4 -4 -3 -4 -4 -4 -4 -4 -4 -5 -5 -5 -5 -6 -6 -7 -7 -8 -8 -8 -8 -8 -8 -8 -8 -8 -8 -8 -9 -9 -9 -9 -9 -9 -10 -10 -10 -10 -10 -10 -10 -10 -10 -10
-4 -5 -5 -5 -5 -5 -5 -5 -5 -5 -6 -6 -6 -6 -7 -7 -8 -8 -8 -8 -8 -8 -8 -9 -9 -9 -9 -9 -9 -9 -9 -10 -10 -10 -10 -10 -10 -10 -10 -10 -10 -10 -10 -11
-5 -6 -5 -4 -5 -6 -5 -5 -5 -6 -6 -7 -7 -7 -8 -8 -8 -8 -8 -9 -9 -9 -9 -9 -9 -9 -9 -9 -9 -10 -10 -10 -10 -10 -10 -11 -11 -11 -11 -11 -11 -11 -11 -11
Wind_Speed
3 3 4 4 4 5 5 6 8 3 2 4 8 9 8 8 8 8 7 7 7 6 6 6 5 5 5 4 3 3 3 3 3 2 2 3 3 3 4 6 7 8 8 8
3 4 3 2 3 6 7 8 8 2 1 3 7 10 8 9 10 9 8 7 7 6 6 6 6 5 5 4 3 3 3 2 3 2 2 2 2 2 3 5 6 8 9 9
4 0 1 4 4 6 7 6 5 4 3 5 5 7 6 6 6 6 6 6 6 7 7 7 6 5 4 3 2 2 2 2 2 2 2 2 2 2 3 3 4 7 8 8
2 2 2 4 4 4 5 1 3 4 4 4 4 5 5 6 6 7 6 6 6 6 6 6 6 5 4 3 3 2 2 2 2 2 2 2 2 2 2 3 3 5 7 7
2 1 2 3 2 2 2 3 3 5 5 6 6 5 5 4 5 8 7 7 7 6 6 7 6 5 4 4 3 2 2 2 2 2 2 2 2 2 2 3 3 3 5 7
1 0 1 1 1 1 1 2 4 4 3 6 7 7 5 4 5 5 7 7 7 6 6 6 6 4 4 3 3 2 2 1 1 2 1 1 2 3 3 4 4 3 3 5
3 4 2 1 1 2 2 0 1 2 4 6 2 4 5 1 2 5 7 7 7 7 6 6 6 5 4 4 3 2 1 1 1 1 1 1 1 2 2 3 3 4 3 3
4 4 5 3 1 2 4 2 3 4 5 3 2 6 3 3 4 5 6 7 7 6 5 5 4 4 3 3 3 2 1 1 0 0 0 1 1 1 1 2 3 3 3 3
3 2 2 1 1 1 2 3 1 2 5 5 6 4 1 3 3 5 6 6 6 5 4 4 4 3 3 2 2 2 1 0 0 1 1 1 1 2 2 3 3 3 3 5
3 3 2 2 0 3 3 2 1 3 3 6 6 5 3 4 5 5 5 5 4 5 4 3 3 2 2 2 2 1 1 0 0 1 1 2 2 2 2 3 3 4 4 5
2 2 2 2 6 5 4 3 4 4 4 4 5 3 1 3 5 6 5 5 5 5 3 2 2 2 2 2 2 1 1 0 1 1 1 1 2 2 3 3 3 3 4 4
1 1 4 4 0 2 2 4 5 4 5 4 4 5 2 3 4 4 4 4 4 4 3 2 2 2 1 2 1 1 1 1 1 1 1 2 2 2 2 3 3 4 4 5
0 2 2 2 1 1 3 4 4 3 2 4 5 6 1 3 4 3 3 3 3 3 2 2 1 1 1 1 1 1 1 1 1 1 2 2 2 2 3 3 4 4 4 5
1 3 6 7 4 2 5 6 6 6 5 7 9 9 4 2 1 1 2 2 2 2 2 1 1 0 0 1 1 1 1 1 1 1 2 3 3 3 3 3 4 4 5 5
2 5 6 8 7 5 7 8 9 11 10 9 9 8 6 4 3 2 2 2 2 2 2 1 1 0 1 1 1 1 1 1 1 2 3 3 3 3 3 3 4 4 5 6
3 4 4 7 7 6 9 10 11 12 11 12 11 10 4 2 0 1 1 2 2 2 1 1 1 1 1 2 1 1 1 2 2 3 3 3 3 3 4 4 4 4 5 5
4 3 3 5 3 4 9 9 10 7 7 7 11 9 2 1 2 2 2 2 2 1 1 1 1 2 2 2 1 2 2 2 3 3 3 3 3 4 4 5 5 5 5 5
4 4 3 3 2 8 6 1 4 6 5 5 3 2 1 1 2 1 0 1 1 0 1 1 1 1 1 1 1 1 2 2 3 3 3 3 3 4 5 5 5 5 5 6
3 4 3 3 5 8 3 1 1 3 4 2 3 2 2 2 2 2 3 3 1 1 1 1 1 1 1 1 1 1 2 3 3 4 4 4 4 5 5 6 5 5 6 6
1 2 3 4 5 6 3 1 1 2 3 2 0 1 0 1 1 3 2 3 2 2 2 2 1 1 1 1 1 2 3 3 4 4 4 4 5 5 6 6 6 6 6 7
3 3 6 7 7 6 1 1 2 2 4 2 0 0 1 1 3 2 2 2 2 2 2 2 2 1 2 2 1 2 3 4 4 4 5 5 5 6 6 6 5 5 6 6
6 5 5 5 6 6 1 3 3 3 2 2 2 1 0 1 1 1 2 2 2 2 2 2 2 3 3 2 1 3 4 4 4 4 5 5 5 6 5 5 5 5 5 6
4 4 3 5 5 0 3 3 1 1 2 2 2 1 1 1 2 2 2 2 2 2 3 2 2 3 3 2 2 4 4 4 4 4 5 5 6 5 5 5 5 5 4 4
2 1 2 3 4 1 1 1 1 1 2 2 1 1 0 1 2 2 2 2 2 3 3 3 3 4 4 3 3 3 4 3 4 4 5 5 5 5 5 5 4 4 4 4
2 2 3 4 4 3 2 1 2 2 1 2 2 2 1 1 2 2 2 3 3 3 3 3 3 4 4 4 4 4 3 3 4 4 5 5 5 5 5 5 4 5 5 6
3 4 4 6 4 3 4 2 1 1 1 1 1 2 2 1 2 2 3 3 3 3 3 4 4 4 4 4 5 4 3 3 3 5 5 4 4 5 5 5 6 8 8 10
Wind_Direction
198 219 218 223 232 275 290 283 278 276 176 224 243 253 230 201 201 197 190 182 175 169 154 148 145 136 127 119 106 95 75 55 51 42 26 15 12 10 17 19 21 18 13 11
223 229 240 278 272 265 267 274 281 299 155 257 268 268 244 206 202 195 189 185 173 162 154 151 148 143 137 130 114 94 81 72 61 41 22 12 9 2 9 8 16 17 11 8
229 218 261 249 255 264 257 257 280 296 302 254 280 279 230 199 187 179 181 175 167 167 163 156 153 147 135 129 121 103 76 76 65 32 30 28 17 355 4 5 9 7 3 2
234 221 254 244 247 262 261 302 289 288 294 270 208 280 249 193 188 191 188 175 169 161 152 150 151 151 146 140 124 107 83 73 64 45 48 37 19 360 344 343 342 352 357 358
223 193 246 245 258 271 272 336 282 264 262 280 236 246 268 175 210 209 188 172 163 158 152 150 151 157 145 128 124 122 104 81 71 62 59 27 9 352 348 348 343 350 354 355
238 78 314 326 358 271 273 280 258 257 253 261 227 215 265 207 212 179 168 160 154 151 148 145 144 143 132 123 122 127 118 84 73 72 54 23 2 351 348 347 341 344 346 348
220 185 167 136 171 181 218 246 313 261 226 245 188 210 247 198 114 147 156 148 139 139 144 142 145 146 142 136 131 134 133 89 64 69 49 355 355 344 328 330 331 330 332 333
245 237 170 178 193 205 214 229 210 243 258 277 245 233 231 93 83 101 118 127 128 131 136 138 143 144 143 140 139 155 162 139 52 24 343 340 356 340 314 320 323 313 310 314
262 237 110 116 344 292 215 222 288 292 293 277 245 225 193 122 114 120 127 128 136 141 142 138 134 132 133 139 152 164 171 183 350 325 331 323 336 323 314 311 318 311 314 318
308 280 169 129 231 268 285 307 170 205 253 268 260 232 221 178 180 159 152 150 146 135 129 128 126 130 137 146 145 133 141 176 267 309 313 324 319 307 309 308 308 311 315 320
303 253 207 187 208 209 192 218 223 239 242 247 279 265 45 150 165 169 167 155 145 141 140 143 146 151 150 135 131 133 155 179 251 290 301 303 294 300 307 300 298 310 313 312
283 264 249 227 192 351 211 213 193 204 248 237 262 270 38 71 99 120 133 136 130 133 140 149 154 151 150 148 146 152 202 219 244 269 286 280 285 293 299 300 300 308 307 308
162 209 266 271 272 300 264 245 238 249 262 238 241 258 75 79 78 99 120 128 135 140 139 142 146 141 157 165 165 178 234 268 292 282 281 280 280 288 289 291 297 302 303 301
298 228 226 243 269 213 233 229 216 208 224 245 239 250 253 220 198 171 158 167 173 163 156 162 152 149 209 179 183 212 258 271 287 278 269 271 272 276 278 284 292 296 300 297
213 241 254 270 282 270 258 245 218 218 228 238 256 260 263 239 230 214 187 177 170 171 174 172 184 255 300 295 254 244 259 271 277 271 264 264 272 275 282 285 289 294 298 300
223 247 273 272 261 257 265 254 237 234 238 246 265 272 275 272 298 217 186 179 198 208 195 191 250 280 275 282 284 280 275 285 280 269 264 270 273 277 280 283 285 293 294 294
204 210 237 263 269 290 262 239 226 222 220 221 244 252 259 274 241 221 224 210 209 206 228 238 252 263 267 262 279 280 283 291 282 277 273 269 275 282 283 289 291 288 290 292
207 204 226 264 295 249 247 184 200 212 229 230 239 265 251 265 277 305 354 112 91 360 303 269 258 264 272 264 274 285 297 289 280 281 283 289 286 285 286 285 284 285 284 286
209 196 222 231 254 266 263 244 162 203 255 246 240 270 336 21 353 349 50 64 54 360 322 285 257 265 260 262 279 298 294 289 286 288 292 294 295 291 285 283 283 284 283 284
205 201 219 229 248 259 260 27 26 118 255 333 225 236 325 37 288 272 17 32 17 359 350 332 329 328 301 286 281 276 280 281 281 287 294 294 290 287 284 277 277 280 283 285
186 210 222 238 251 259 320 357 84 172 265 344 41 185 129 250 260 281 349 1 2 354 346 350 345 319 299 293 270 270 277 278 287 298 298 296 292 287 282 279 278 278 284 285
195 197 205 210 231 249 64 107 168 235 327 357 8 31 23 318 337 345 349 351 352 347 343 344 333 312 308 303 277 280 281 291 302 300 297 293 291 293 297 288 286 282 280 282
203 202 206 206 222 160 137 158 185 21 319 328 337 353 67 321 306 316 323 328 334 332 327 328 315 309 307 299 276 279 292 301 301 296 294 295 298 297 299 290 289 289 285 289
227 323 244 261 264 279 204 198 346 345 303 320 336 1 348 275 286 296 304 314 319 321 320 323 317 311 311 312 303 288 298 298 292 293 297 301 300 301 301 299 295 291 288 289
243 213 248 258 281 308 229 242 295 320 358 17 16 6 324 260 284 288 295 296 297 306 310 307 300 297 303 311 303 302 300 298 295 295 299 305 306 303 301 301 291 291 277 280
217 216 224 247 250 249 276 289 318 337 334 1 8 341 327 272 268 289 293 290 295 302 306 307 302 301 303 306 303 303 298 291 292 301 304 303 304 305 306 306 308 304 303 305
Height
1500 1503 1504 1503 1502 1502 1501 1500 1500 1499 1502 1503 1503 1501 1501 1502 1504 1505 1507 1509 1510 1512 1514 1515 1516 1517 1518 1518 1519 1519 1520 1521 1521 1521 1520 1520 1520 1520 1520 1519 1519 1518 1517 1516
1500 1502 1501 1501 1501 1501 1501 1501 1500 1499 1501 1502 1501 1499 1496 1497 1498 1500 1502 1505 1507 1510 1512 1513 1514 1515 1515 1516 1517 1517 1518 1519 1519 1519 1519 1519 1519 1518 1518 1517 1517 1516 1515 1514
1499 1502 1500 1500 1500 1500 1500 1501 1501 1502 1502 1501 1503 1499 1493 1492 1494 1497 1499 1502 1504 1507 1509 1511 1512 1513 1513 1514 1515 1516 1517 1517 1517 1517 1517 1517 1517 1516 1516 1515 1514 1514 1513 1512
1499 1500 1500 1499 1500 1500 1501 1500 1501 1503 1507 1505 1503 1506 1491 1490 1493 1494 1497 1499 1502 1504 1506 1508 1509 1511 1511 1512 1514 1514 1515 1515 1516 1515 1515 1514 1514 1514 1513 1513 1512 1511 1510 1510
1498 1499 1500 1500 1500 1501 1501 1501 1502 1503 1505 1506 1501 1505 1494 1489 1492 1492 1494 1496 1499 1502 1504 1505 1507 1509 1510 1511 1512 1513 1513 1513 1513 1513 1513 1513 1512 1512 1512 1511 1510 1509 1508 1507
1499 1500 1500 1500 1501 1501 1502 1503 1502 1503 1506 1509 1496 1500 1494 1490 1486 1487 1491 1494 1497 1500 1502 1504 1506 1508 1509 1510 1510 1511 1511 1511 1511 1511 1511 1511 1510 1510 1509 1508 1507 1506 1505 1505
1498 1500 1500 1501 1502 1503 1504 1506 1508 1507 1509 1501 1489 1494 1494 1485 1483 1485 1488 1492 1495 1498 1500 1502 1504 1505 1507 1507 1508 1509 1509 1509 1509 1509 1509 1509 1508 1507 1507 1506 1505 1504 1502 1501
1497 1499 1500 1501 1501 1503 1502 1502 1508 1508 1500 1493 1493 1495 1489 1485 1484 1485 1488 1491 1494 1497 1499 1501 1502 1503 1504 1505 1506 1506 1506 1506 1506 1506 1506 1506 1506 1505 1504 1504 1502 1501 1500 1499
1496 1497 1499 1500 1500 1502 1501 1503 1501 1506 1502 1502 1493 1486 1488 1486 1486 1487 1489 1491 1494 1497 1498 1500 1501 1502 1502 1503 1503 1504 1504 1504 1504 1504 1503 1503 1503 1502 1501 1500 1500 1498 1497 1495
1496 1499 1500 1501 1502 1502 1502 1501 1506 1508 1506 1499 1484 1482 1485 1487 1487 1488 1490 1491 1494 1496 1497 1499 1499 1500 1500 1501 1501 1501 1501 1501 1501 1501 1500 1500 1499 1499 1498 1497 1496 1495 1494 1492
1497 1501 1503 1503 1503 1500 1503 1504 1502 1502 1499 1501 1495 1489 1482 1482 1483 1486 1488 1490 1492 1494 1495 1496 1497 1498 1498 1498 1498 1498 1498 1498 1498 1497 1497 1496 1496 1495 1494 1493 1492 1491 1490 1488
1498 1500 1501 1498 1497 1498 1497 1498 1500 1505 1502 1498 1498 1495 1484 1482 1482 1484 1487 1489 1491 1492 1493 1494 1495 1495 1495 1495 1495 1494 1494 1494 1494 1494 1493 1492 1492 1491 1490 1489 1488 1487 1486 1484
1499 1502 1502 1498 1501 1502 1499 1497 1496 1498 1501 1500 1498 1493 1485 1484 1484 1485 1487 1488 1490 1491 1492 1492 1492 1492 1492 1492 1492 1491 1491 1491 1490 1490 1489 1488 1488 1487 1486 1485 1484 1483 1481 1480
1498 1500 1499 1493 1489 1495 1498 1496 1496 1499 1501 1496 1489 1484 1485 1484 1485 1485 1486 1487 1488 1489 1489 1490 1490 1490 1490 1489 1488 1488 1487 1487 1486 1486 1485 1484 1483 1482 1482 1481 1480 1478 1477 1476
1498 1499 1495 1492 1490 1490 1490 1490 1491 1494 1491 1490 1482 1480 1480 1481 1482 1483 1484 1485 1486 1486 1487 1487 1487 1487 1486 1486 1485 1484 1484 1483 1482 1481 1480 1480 1479 1478 1477 1476 1475 1474 1473 1471
1496 1497 1494 1493 1488 1488 1488 1485 1485 1485 1485 1484 1481 1480 1479 1479 1480 1481 1482 1483 1483 1484 1484 1484 1484 1483 1483 1482 1481 1480 1479 1479 1478 1477 1476 1475 1475 1474 1473 1472 1470 1469 1468 1467
1495 1496 1496 1491 1487 1488 1485 1478 1478 1479 1477 1479 1479 1478 1477 1478 1479 1479 1480 1480 1481 1481 1481 1481 1481 1480 1479 1478 1478 1477 1476 1475 1474 1473 1472 1471 1470 1469 1468 1467 1466 1465 1463 1462
1492 1493 1493 1491 1491 1490 1474 1470 1470 1472 1474 1475 1475 1475 1476 1477 1477 1478 1478 1478 1478 1479 1479 1478 1478 1477 1476 1475 1474 1473 1472 1471 1470 1469 1468 1467 1466 1465 1464 1463 1461 1460 1459 1457
1488 1491 1491 1491 1487 1475 1471 1472 1472 1474 1474 1473 1474 1474 1475 1475 1476 1476 1476 1476 1476 1476 1476 1475 1475 1474 1473 1472 1471 1470 1468 1467 1466 1465 1464 1463 1462 1460 1459 1458 1457 1455 1454 1452
1488 1489 1492 1488 1486 1477 1471 1472 1469 1472 1474 1472 1472 1473 1474 1474 1477 1475 1474 1474 1474 1474 1473 1472 1472 1471 1470 1469 1467 1466 1465 1464 1462 1461 1460 1458 1457 1456 1455 1454 1452 1451 1450 1448
1491 1491 1490 1487 1483 1474 1475 1472 1471 1477 1474 1472 1471 1472 1473 1473 1474 1473 1472 1472 1472 1471 1470 1470 1468 1467 1466 1465 1464 1463 1462 1460 1459 1458 1456 1454 1453 1452 1450 1449 1448 1447 1445 1444
1483 1486 1486 1483 1481 1476 1475 1474 1476 1475 1472 1471 1470 1470 1471 1471 1470 1470 1470 1470 1469 1468 1467 1466 1465 1464 1463 1462 1461 1459 1458 1457 1456 1454 1452 1451 1449 1448 1446 1445 1443 1442 1441 1439
1478 1478 1476 1477 1475 1472 1472 1471 1471 1471 1471 1470 1469 1469 1469 1468 1468 1468 1468 1467 1467 1466 1465 1464 1462 1461 1460 1459 1458 1456 1455 1453 1452 1450 1448 1447 1445 1444 1442 1441 1439 1438 1437 1435
1476 1476 1475 1474 1471 1470 1470 1469 1469 1469 1469 1468 1468 1467 1467 1466 1466 1466 1465 1465 1464 1463 1462 1461 1459 1458 1457 1456 1455 1453 1452 1450 1448 1446 1445 1443 1441 1440 1438 1437 1436 1434 1432 1431
1475 1476 1475 1473 1470 1468 1467 1467 1467 1466 1466 1466 1466 1466 1465 1465 1464 1464 1463 1462 1461 1460 1459 1458 1457 1455 1454 1453 1451 1450 1448 1447 1445 1443 1441 1439 1438 1436 1435 1434 1433 1431 1429 1428
1472 1473 1473 1469 1467 1467 1465 1464 1464 1464 1463 1463 1463 1462 1463 1463 1462 1461 1460 1460 1459 1458 1457 1455 1454 1452 1451 1449 1448 1447 1445 1443 1442 1439 1438 1436 1434 1433 1432 1430 1428 1427 1426 1424